Вернуться в каталог

STARLINK-11686

АктивенСвязьVLEO
NORAD 64233·PAYLOAD·🇺🇸 United States

Запущен Jun 3, 2025 с Cape Canaveral Space Force Station

Loading…

Ближайшие Пролёты (ближайшие 24 часа)

TLE

СвежийSource: CelesTrak SupGP

Эпоха: Sep 15, 2026, 04:00 UTC

1 64233C 25119A   26258.16715278  .00086499  00000+0  67162-3 0  2584
2 64233  43.0003 147.3049 0001621 272.9281   3.3198 15.70803206    16

Отслеживайте STARLINK-11686 в реальном времени с AllMySat

Download on the App Store